Regional Weather Roundup
Issued by NWS

Home | Current Version | Previous Version | Graphics & Text | Print | Product List | Glossary On
Versions: 1 2 3 4 5 6 7 8 9 10 11 12 13 14 15 16 17 18 19 20 21 22 23 24 25 26 27
000
ASUS45 KCYS 210810
RWRWY

WYOMING REGIONAL WEATHER ROUNDUP
NATIONAL WEATHER SERVICE CHEYENNE WY
200 AM MDT SAT OCT 21 2017

NOTE:  "FAIR" INDICATES FEW OR NO CLOUDS BELOW 12,000 FEET
WITH NO SIGNIFICANT WEATHER AND/OR OBSTRUCTIONS TO VISIBILITY.

WYZ001-210900-
YELLOWSTONE NATIONAL PARK

CITY           SKY/WX    TMP DP  RH WIND       PRES   REMARKS
LK YELLOWSTONE   N/A     24  19  81 W5        29.89R WCI  18
W YELLOWSTONE  NOT AVBL

$$
WYZ002>013-054>058-071-098>099-210900-
NORTHERN WYOMING

CITY           SKY/WX    TMP DP  RH WIND       PRES   REMARKS
JACKSON        CLOUDY    27  24  89 CALM      29.93R
CODY           FAIR      41  18  39 SW16G26   29.75R
GREYBULL       MOCLDY    42  22  44 CALM      29.76R
WORLAND        MOCLDY    36  27  69 NE5       29.76R WCI  32
SHERIDAN       FAIR      43  19  38 NW8       29.70R
BUFFALO        FAIR      41  16  36 NW12G20   29.69R
GILLETTE       FAIR      43  24  47 NW17G26   29.69R
HULETT         FAIR      45  28  53 W10G16    29.69R
NEWCASTLE      FAIR      43  32  65 NW18G25   29.64F

$$
WYZ014>020-022>026-101>103-210900-
CENTRAL WYOMING

CITY           SKY/WX    TMP DP  RH WIND       PRES   REMARKS
BIG PINEY      FAIR      26  20  77 N5        29.93R WCI  20
PINEDALE       PTSUNNY   23  21  93 CALM      29.93R
DUBOIS         FAIR      27  18  69 NW9       29.86R WCI  17
LANDER         FAIR      35  21  56 CALM      29.84R
RIVERTON       MOCLDY    37  20  50 W26G35    29.80R WCI  25
CASPER         FAIR      38  16  40 W14       29.77R WCI  30
DOUGLAS        FAIR      45  15  30 W29G36    29.72R

$$
WYZ021-027>030-104>119-210900-
SOUTHERN WYOMING

CITY           SKY/WX    TMP DP  RH WIND       PRES   REMARKS
EVANSTON       FAIR      26  20  77 SW9       30.01R WCI  17
FORT BRIDGER   FAIR      27  21  77 SW15      30.02R WCI  16
ROCK SPRINGS   FAIR      29  19  66 W24       29.95R WCI  15
DIXON          CLOUDY    31  27  84 W8        29.99R WCI  24
RAWLINS        FAIR      30  19  63 W21G31    29.89R WCI  17
SARATOGA       CLOUDY    30  27  86 SW16G22   29.92R WCI  19
LARAMIE        FAIR      32  20  61 VRB3      29.80S
CHEYENNE       MOCLDY    43  24  47 W25G40    29.67R
TORRINGTON     CLOUDY    51  21  30 W24G38    29.62R
PINE BLUFFS    FAIR      45  18  33 MISG      29.63S

$$




USA.gov is the U.S. government's official web portal to all federal, state and local government web resources and services.